Regional Weather Roundup
Issued by NWS

Home | Current Version | Previous Version | Text Only | Print | Product List | Glossary Off
Versions: 1 2 3 4 5 6 7 8 9 10 11 12 13 14 15 16 17 18 19 20 21 22 23 24 25 26 27 28 29 30 31 32 33 34 35 36 37 38 39 40 41 42 43 44 45 46 47 48 49 50

000
ASUS43 KFSD 211902
RWRSD

WEATHER ROUNDUP FOR SOUTH DAKOTA
NATIONAL WEATHER SERVICE SIOUX FALLS SD
200 PM CDT TUE OCT 21 2014

NOTE: "FAIR" INDICATES FEW OR NO CLOUDS BELOW 12,000 FEET WITH NO
SIGNIFICANT WEATHER AND/OR OBSTRUCTIONS TO VISIBILITY.


SDZ001>005-009-010-012>017-212000-
NORTHWEST AND NORTH CENTRAL SOUTH DAKOTA

CITY           SKY/WX    TMP DP  RH WIND       PRES   REMARKS
MOBRIDGE       SUNNY     79  49  34 SE20      29.74F
$$

SDZ012>016-024>037-041>051-057-063-072>074-212000-
SOUTHWEST AND SOUTH CENTRAL SOUTH DAKOTA

CITY           SKY/WX    TMP DP  RH WIND       PRES   REMARKS
RAPID CTY ARPT SUNNY     79  45  29 S20       29.77F
PIERRE         SUNNY     84  39  20 S26G41    29.79F
CUSTER         SUNNY     70  37  29 SW12G26   29.91F
PHILIP         SUNNY     81  49  32 S13       29.77F
PINE RIDGE       N/A     75  49  39 S15G22    29.85  HAZE
SPEARFISH      FAIR      75  41  29 SW17G25   29.80S
WINNER         FAIR      81  37  20 S30G40    29.88F
$$

SDZ004>011-016>023-039-040-212000-
NORTHEAST SOUTH DAKOTA

CITY           SKY/WX    TMP DP  RH WIND       PRES   REMARKS
ABERDEEN       SUNNY     75  43  31 S21G28    29.87F
WATERTOWN      SUNNY     72  41  32 S21       29.95F
SISSETON         N/A     67  42  40 S20G28    29.94F
$$

SDZ017-020-022-023-036>040-048>070-212000-
SOUTHEAST SOUTH DAKOTA

CITY           SKY/WX    TMP DP  RH WIND       PRES   REMARKS
SIOUX FALLS    SUNNY     72  44  36 S14G23    30.00F
HURON          SUNNY     77  43  29 S15G23    29.90F
CHAMBERLAIN    SUNNY     79  39  23 S20G31    29.88F
MITCHELL       SUNNY     79  44  28 S16       29.93F
YANKTON        SUNNY     75  46  35 S10G16    29.98F
$$

ABBREVIATIONS USED IN REMARKS
   TC - TEMPERATURE IN CELSIUS
  WCI - WIND CHILL INDEX
   HX - HEAT INDEX
  VSB - VISIBILITY




USA.gov is the U.S. government's official web portal to all federal, state and local government web resources and services.